Flag for U.S.A. Weather past 2 weeks in Atascadero, California, U.S.A.

Now
57 °F

Scattered clouds.


Feels Like: 57 °F
Forecast: 43 / 54 °F
Wind: 5 mph from North

Location: Paso Robles Municipal Airport

Current Time: Feb 28, 2015 at 3:54:36 PM

Latest Report: Feb 28, 2015 at 2:53 PM


Visibility: 10 mi

Pressure: 29.77 "Hg

Humidity: 60%

Dew point: 43 °F

Location of AtascaderoLocation

Historic Weather in Atascadero — Graph

°F

Atascadero temperature yesterday

Maximum temperature yesterday: 66 °F (at 1:53 PM)
Minimum temperature yesterday: 42 °F (at 2:53 AM)
Average temperature yesterday: 53 °F

Past Weeks' High & Low Weather Summary

 TemperatureHumidityPressure
High78 °F (Feb 14, 4:53 PM)97% (Feb 19, 10:53 AM)30.37 "Hg (Feb 19, 10:53 AM)
Low33 °F (Feb 25, 5:53 AM)30% (Feb 14, 3:53 PM)29.75 "Hg (Feb 27, 4:53 PM)
Average53 °F77%30.02 "Hg
* Reported Feb 13 2:53 PM — Feb 28 2:53 PM, Atascadero, Weather by CustomWeather, © 2015

Note: Actual official high and low records may vary slightly from our data, if they occured in-between our weather recording intervals... More about our weather records

Advertising

Atascadero weather history for previous 24 hours

 ConditionsComfort  
Time TempWeatherWind HumidityBarometerVisibility
2:53 PM
Sat, Feb 28
57 °FScattered clouds.5 mph60%29.77 "Hg10 mi
1:53 PM58 °FBroken clouds.15 mph65%29.78 "Hg10 mi
12:53 PM58 °FBroken clouds.N/A51%29.78 "Hg10 mi
11:53 AM56 °FBroken clouds.7 mph62%29.81 "Hg10 mi
10:53 AM54 °FLight rain. Overcast.No wind69%29.83 "Hg8 mi
9:53 AM54 °FPassing clouds.N/A69%29.82 "Hg10 mi
8:53 AM49 °FSunny.5 mph77%29.82 "Hg10 mi
7:53 AM45 °FPassing clouds.No wind86%29.81 "Hg10 mi
6:53 AM40 °FSunny.3 mph89%29.79 "Hg10 mi
5:53 AM41 °FOvercast.No wind89%29.78 "Hg10 mi
4:53 AM42 °FClear.No wind85%29.78 "Hg10 mi
3:53 AM44 °FPassing clouds.6 mph85%29.77 "Hg10 mi
3:01 AM44 °FPassing clouds.6 mph85%29.78 "Hg10 mi
1:53 AM44 °FClear.5 mph85%29.79 "Hg10 mi
12:53 AM47 °FClear.No wind80%29.78 "Hg10 mi
11:53 PM
Fri, Feb 27
47 °FPassing clouds.3 mph83%29.78 "Hg10 mi
10:53 PM49 °FOvercast.5 mph77%29.78 "Hg10 mi
9:53 PM49 °FPassing clouds.6 mph74%29.78 "Hg10 mi
8:53 PM50 °FPassing clouds.5 mph71%29.77 "Hg10 mi
7:53 PM52 °FClear.10 mph69%29.77 "Hg10 mi
6:53 PM55 °FPassing clouds.9 mph64%29.75 "Hg10 mi
5:53 PM58 °FScattered clouds.9 mph56%29.75 "Hg10 mi
4:53 PM62 °FPartly sunny.10 mph46%29.75 "Hg10 mi
3:53 PM63 °FPassing clouds.12 mph48%29.75 "Hg10 mi
Weather by CustomWeather, © 2015

See weather overviewHow to use our weather pages